Printer-friendly version

IAU Minor Planet Center

Minor Planet Center

MPEC 2007-T84 : 2007 TS24

The following Minor Planet Electronic Circular may be linked-to from your own Web pages, but must not otherwise be redistributed electronically.


Read MPEC 2007-T83 Read MPEC 2007-T85


M.P.E.C. 2007-T84                                Issued 2007 Oct. 12, 15:15 UT

     The Minor Planet Electronic Circulars contain information on unusual
         minor planets and routine data on comets.  They are published
   on behalf of Commission 20 of the International Astronomical Union by the
          Minor Planet Center, Smithsonian Astrophysical Observatory,
                          Cambridge, MA 02138, U.S.A.

             Prepared using the Tamkin Foundation Computer Network

                              MPC@CFA.HARVARD.EDU
          URL http://www.cfa.harvard.edu/iau/mpc.html  ISSN 1523-6714

                                   2007 TS24

Observations:
     K07T24S* C2007 10 11.23348 01 03 01.44 -02 26 43.8          19.0 V ET084703
     K07T24S  C2007 10 11.24140 01 03 05.04 -02 25 44.6          19.7 V ET084703
     K07T24S  C2007 10 11.24902 01 03 08.56 -02 24 46.6          19.0 V ET084703
     K07T24S  C2007 10 11.25613 01 03 11.84 -02 23 53.9          19.2 V ET084703
     K07T24S  C2007 10 11.34420 01 03 52.40 -02 12 41.0          19.4 R ET084651
     K07T24S  C2007 10 11.34506 01 03 52.80 -02 12 34.1          19.6 R ET084651
     K07T24S  C2007 10 11.34592 01 03 53.19 -02 12 27.2          19.9 R ET084651
     K07T24S  C2007 10 11.34936 01 03 54.86 -02 12 02.6          18.9 V ET084703
     K07T24S  C2007 10 11.34990 01 03 55.08 -02 11 58.6          18.7 V ET084703
     K07T24S  C2007 10 11.35042 01 03 55.33 -02 11 54.9          19.1 V ET084703
     K07T24S  C2007 10 11.35094 01 03 55.58 -02 11 51.6          18.6 V ET084703
     K07T24S  C2007 10 11.36469 01 04 00.50 -02 10 17.5          19.3 R ET084649
     K07T24S  C2007 10 11.36945 01 04 02.78 -02 09 40.7          19.4 R ET084649
     K07T24S  C2007 10 11.37183 01 04 03.95 -02 09 22.5          19.1 R ET084649
     K07T24S  C2007 10 11.37420 01 04 05.07 -02 09 04.1          19.6 R ET084649
     K07T24S  C2007 10 12.34766 01 13 18.80 +00 08 22.3          18.7 V ET084G96
     K07T24S  C2007 10 12.34821 01 13 19.09 +00 08 27.2          18.8 V ET084G96
     K07T24S  C2007 10 12.34874 01 13 19.41 +00 08 32.2          18.8 V ET084G96
     K07T24S  C2007 10 12.34927 01 13 19.70 +00 08 36.6          18.9 V ET084G96

Observer details:
649 Powell Observatory, Louisburg.  Observer R. Trentman.  0.75-m Newtonian
    reflector + CCD.
651 Grasslands Observatory, Tucson.  Observer J. E. McGaha.  0.62-m f/5.1
    Newtonian reflector + CCD.
703 Catalina Sky Survey.  Observer A. R. Gibbs.  Measurers E. C. Beshore,
    A. Boattini, G. J. Garradd, A. R. Gibbs, A. D. Grauer, R. E. Hill,
    R. A. Kowalski, S. M. Larson, R. H. McNaught.  0.68-m Schmidt + CCD.
G96 Mt. Lemmon Survey.  Observer R. E. Hill.  Measurers E. C. Beshore,
    A. Boattini, G. J. Garradd, A. R. Gibbs, A. D. Grauer, R. E. Hill,
    R. A. Kowalski, S. M. Larson, R. H. McNaught.  1.5-m reflector + CCD.

Orbital elements:
2007 TS24                                                Earth MOID = 0.0182 AU
Epoch 2007 Oct. 27.0 TT = JDT 2454400.5                 MPC
M 356.98726              (2000.0)            P               Q
n   0.21033937     Peri.   32.32869     +0.57899327     -0.81454455
a   2.8001997      Node    22.35509     +0.72658273     +0.49553107
e   0.6526128      Incl.    5.40586     +0.36992476     +0.30160592
P   4.69           H   24.7           G   0.15           U   8
Residuals in seconds of arc
071011 703  0.1+  0.1+    071011 703  0.2+  0.6+    071011 649  0.0   0.6-
071011 703  0.4-  0.2-    071011 703  0.2-  0.5+    071012 G96  0.1+  0.2+
071011 703  0.1-  0.4+    071011 703  0.1-  0.2+    071012 G96  0.2-  0.0
071011 703  0.2+  0.5-    071011 703  0.0   0.5-    071012 G96  0.1+  0.1+
071011 651  0.0   0.3+    071011 649  0.1+  0.5-    071012 G96  0.0   0.4-
071011 651  0.0   0.6+    071011 649  0.0   0.5-
071011 651  0.1-  0.9+    071011 649  0.3+  0.7-

Ephemeris:
2007 TS24                a,e,i = 2.80, 0.65, 5                   q = 0.9728
Date    TT    R. A. (2000) Decl.     Delta      r     Elong.  Phase     V
2007 10 07    00 37.11   -08 41.9    0.0859   1.083   165.8    13.1    20.3
2007 10 09    00 47.26   -06 16.7    0.0741   1.072   167.5    11.6    19.9
2007 10 11    01 01.04   -02 54.1    0.0627   1.060   170.3     9.1    19.4
2007 10 13    01 20.50   +01 56.8    0.0522   1.050   173.9     5.8    18.9
2007 10 15    01 49.31   +09 03.0    0.0429   1.040   172.3     7.4    18.5
2007 10 17    02 34.00   +19 12.5    0.0357   1.030   160.6    18.8    18.5
2007 10 19    03 44.14   +31 39.1    0.0319   1.022   142.6    36.3    18.7
2007 10 21    05 22.03   +41 40.8    0.0327   1.014   122.6    55.9    19.3
2007 10 23    07 01.71   +45 08.1    0.0377   1.006   106.1    71.9    20.1
2007 10 25    08 14.88   +44 06.7    0.0455   0.999    94.8    82.6    20.9
2007 10 27    09 01.90   +41 48.5    0.0548   0.993    87.8    89.1    21.5
2007 10 29    09 32.40   +39 32.1    0.0651   0.988    83.4    92.9    22.0
2007 10 31    09 53.21   +37 35.4    0.0758   0.984    80.7    94.9    22.5
2007 11 02    10 08.20   +35 58.7    0.0868   0.980    79.1    95.9    22.8
2007 11 04    10 19.49   +34 38.5    0.0979   0.977    78.3    96.0    23.0
2007 11 06    10 28.34   +33 31.2    0.109    0.975    78.0    95.7    23.3

Timothy B. Spahr             (C) Copyright 2007 MPC           M.P.E.C. 2007-T84

Read MPEC 2007-T83 Read MPEC 2007-T85


Our Web policy. Index to the CBAT/MPC/ICQ pages.


Valid HTML 4.01!